Wind_Speed
18 18 18 18 20 19 17 18 17 16 14 14 14 14 13 11 10 9 9 9 10 10 10 9 9 8 7 7 7 7 8 8 8 8 8 8 8 8 9 9 10 10 11 11 11 11 11 11 11
17 18 18 20 21 19 19 19 17 15 14 14 13 13 12 11 10 9 9 9 10 10 10 9 9 8 8 8 8 8 8 7 7 7 7 7 7 8 8 9 9 10 10 10 11 10 10 10 10
18 19 20 21 21 20 20 20 18 17 15 14 13 13 11 11 11 10 10 10 10 10 9 9 8 8 9 8 8 8 8 7 7 7 7 7 7 7 8 8 9 9 10 10 10 9 10 10 10
16 19 21 21 20 21 21 20 19 17 15 14 14 13 11 11 11 10 10 10 10 9 9 8 8 9 9 8 8 8 8 7 7 7 7 7 7 7 7 7 8 8 9 10 10 9 10 9 10
16 18 20 21 20 21 21 20 19 17 15 14 14 13 12 12 11 11 11 11 11 10 10 9 9 9 8 8 8 7 7 7 7 7 7 7 7 7 7 7 7 8 9 10 10 10 10 10 10
14 16 18 19 20 20 21 20 19 17 16 15 14 13 13 13 12 11 11 11 11 10 10 9 9 9 8 7 7 7 8 8 7 7 7 7 7 7 7 7 7 8 9 9 10 10 10 10 10
14 15 17 18 18 19 20 19 18 18 17 15 15 14 14 14 13 11 11 10 10 10 10 10 9 9 8 7 7 7 7 8 7 7 7 6 6 6 6 7 7 7 8 8 9 10 10 9 9
13 14 16 17 17 18 19 19 19 19 18 17 16 16 15 15 14 12 11 11 11 11 10 10 9 9 8 8 7 7 7 7 7 6 6 6 6 6 6 6 6 7 7 8 8 9 9 8 8
12 13 15 16 17 18 19 19 20 20 19 19 18 17 15 15 14 13 12 12 11 11 10 10 9 9 8 8 7 6 6 6 6 6 6 5 5 5 5 5 6 6 7 7 7 7 7 7 7
10 12 14 15 16 17 19 19 20 20 19 19 19 18 16 15 15 14 13 13 12 11 10 10 9 9 8 7 7 6 5 5 5 5 5 5 4 4 5 5 5 5 6 6 6 6 6 6 6
8 11 13 14 15 17 19 19 19 20 19 19 19 18 16 16 16 15 15 14 13 11 10 9 9 9 8 7 7 7 6 5 5 4 4 4 4 4 4 4 4 5 5 5 5 4 5 5 5
8 10 13 15 16 17 18 18 19 19 19 19 18 18 17 16 16 16 15 14 13 12 10 9 9 8 8 7 7 7 6 5 5 5 4 3 3 3 3 3 3 4 4 4 4 4 4 4 3
7 9 12 15 17 17 17 17 18 19 18 18 17 17 17 16 16 16 15 14 14 13 11 10 9 9 8 7 6 6 6 5 4 4 3 2 2 2 3 3 4 3 3 2 2 3 3 3 3
5 7 10 13 16 16 17 16 16 17 18 18 17 17 17 16 16 16 15 14 14 13 12 11 10 9 9 8 6 6 5 5 4 4 3 3 2 2 3 3 4 3 2 2 1 1 2 2 2
6 6 7 10 13 14 15 15 16 16 17 17 17 17 17 16 16 16 16 15 14 14 12 11 10 9 8 8 7 6 6 5 5 4 3 3 3 2 2 3 3 3 2 2 1 1 1 1 1
6 5 5 6 9 12 13 14 15 16 16 17 17 16 16 16 15 15 15 15 15 14 13 11 10 9 8 8 8 7 6 5 5 4 3 3 3 3 3 4 3 3 3 2 1 1 1 0 1
5 4 3 4 7 10 11 11 12 14 16 16 16 16 15 15 15 15 15 15 15 15 14 11 10 9 8 7 7 7 6 6 5 4 3 3 3 3 3 3 2 3 3 3 2 2 2 2 3
5 3 2 1 5 8 9 10 11 12 15 16 15 15 14 14 14 14 15 15 15 15 14 12 11 10 8 7 7 7 6 6 5 3 2 2 2 2 2 2 1 2 2 2 3 3 3 4 4
5 3 2 2 5 7 7 8 9 11 13 14 14 14 14 14 13 14 14 15 15 14 13 12 11 10 10 8 7 7 6 6 5 4 3 2 2 1 1 0 1 2 2 2 3 4 5 5 6
7 5 4 3 6 7 8 8 7 9 11 12 13 13 13 13 13 13 13 14 14 14 14 13 12 11 10 9 7 6 6 5 5 4 3 2 1 0 1 1 2 2 3 3 4 5 6 7 7
10 8 5 5 6 7 7 7 7 7 9 10 11 11 12 12 13 13 13 13 14 14 13 12 12 11 11 10 8 7 6 5 4 4 3 2 1 1 1 2 2 3 4 4 5 5 6 7 7
13 11 8 7 8 8 8 7 5 6 7 8 10 10 10 11 12 13 13 13 13 13 13 12 12 12 11 10 9 8 6 5 5 4 3 2 2 2 2 3 3 4 4 5 6 6 7 7 8
14 12 11 9 8 8 7 7 5 5 6 7 9 9 9 10 11 11 12 12 12 12 12 12 12 12 11 10 10 9 7 6 5 5 4 3 3 3 4 4 4 5 6 6 7 7 8 8 9
17 15 14 12 11 10 8 8 6 6 6 7 8 8 9 10 10 10 11 12 12 12 12 12 12 12 11 10 9 10 8 6 5 4 4 4 4 4 5 5 5 6 7 7 8 8 9 9 10
19 17 16 15 14 10 9 10 8 7 6 6 7 8 8 9 9 9 10 11 11 11 11 12 12 12 12 11 10 9 9 7 6 5 5 5 5 5 5 5 6 7 7 8 8 8 8 8 9
19 18 17 16 15 11 9 11 9 8 8 7 6 7 8 8 9 8 9 10 10 10 11 11 12 12 12 11 10 10 9 8 7 5 5 5 5 5 5 6 6 7 7 7 8 8 8 8 9
21 19 18 17 16 13 11 11 9 7 6 7 7 8 8 8 9 9 8 9 9 9 10 11 11 12 11 12 11 10 10 9 8 7 6 6 6 6 6 6 6 7 8 9 9 9 9 9 10
23 20 21 20 18 16 14 11 10 8 8 7 8 9 9 8 8 8 8 8 7 8 9 10 11 11 12 12 11 11 12 11 9 8 7 7 7 7 7 7 7 8 9 10 10 9 10 10 11
25 23 23 21 20 18 16 14 11 11 9 8 9 9 11 9 9 9 9 9 8 8 9 10 10 11 12 12 12 12 12 12 11 10 9 8 7 7 7 7 8 8 9 9 9 9 10 11 11
26 24 23 23 23 21 19 16 14 13 11 11 10 10 11 10 10 10 10 10 9 9 9 10 11 11 11 12 12 12 13 13 12 11 10 9 9 9 8 8 8 8 9 9 9 9 10 11 11
Wind_Direction
61 55 48 45 48 49 50 52 49 46 43 44 45 46 46 49 51 56 64 66 65 65 64 64 64 63 60 61 61 59 56 50 52 61 68 69 70 76 82 89 96 97 101 104 108 107 104 104 103
57 53 47 43 45 45 48 50 50 49 47 46 45 45 45 48 51 57 59 63 64 65 64 64 65 65 65 66 64 63 59 56 56 57 63 71 78 79 85 89 94 96 101 105 107 106 103 105 105
55 50 45 41 43 45 47 47 47 47 47 48 47 46 46 51 53 54 57 60 63 65 64 64 66 66 67 68 66 63 61 62 63 62 60 70 83 88 88 90 94 95 97 100 104 105 105 104 104
56 51 45 38 41 46 47 47 44 44 44 47 49 48 48 51 54 56 57 59 61 63 63 66 67 69 70 68 68 64 63 64 64 68 67 69 76 81 88 93 95 98 97 95 95 101 103 104 105
58 47 41 39 41 43 45 45 44 41 41 46 49 50 50 52 53 54 56 58 59 62 63 68 72 73 72 70 70 67 65 63 64 69 73 73 74 73 85 89 90 99 100 98 95 98 102 106 104
55 47 39 39 40 43 43 43 42 41 42 47 52 53 53 54 53 53 57 58 59 63 64 67 69 69 70 71 72 71 69 67 67 72 76 77 76 78 86 87 91 96 97 96 96 98 100 99 99
55 47 39 38 39 43 44 46 45 43 44 48 53 53 53 56 55 53 56 59 61 61 62 65 66 66 67 73 76 75 74 71 71 76 78 80 80 84 91 91 91 91 93 95 96 98 98 99 99
55 49 40 40 38 41 45 48 49 47 45 48 51 51 51 56 59 55 56 60 59 61 62 61 62 65 68 73 78 81 79 74 72 76 77 78 81 88 92 94 96 95 97 98 98 99 99 100 100
54 48 41 42 39 43 47 48 50 47 46 48 50 49 51 55 58 58 58 59 59 58 59 59 61 65 70 74 78 81 79 74 72 73 72 76 84 93 94 94 99 102 106 104 101 100 99 100 101
51 45 42 43 42 45 49 48 48 46 45 47 47 47 50 55 58 60 62 60 57 54 54 56 62 67 68 72 74 76 75 74 72 72 71 72 84 97 97 95 99 104 109 108 104 99 98 97 94
53 45 42 43 45 46 48 47 47 45 45 46 46 48 51 55 56 58 61 62 59 56 55 56 58 61 65 70 68 70 75 72 69 67 69 73 82 99 100 98 102 107 110 107 100 97 95 90 84
57 49 45 45 46 48 50 49 46 44 45 46 46 46 50 52 54 55 58 60 60 59 59 61 60 62 63 67 69 64 67 65 61 59 70 85 96 102 119 118 121 121 115 107 96 83 79 77 79
59 51 46 44 45 45 48 48 44 44 43 44 44 43 43 49 51 52 54 53 53 54 57 59 63 63 60 60 59 57 62 59 63 65 74 99 106 112 138 146 145 138 131 116 90 78 72 74 77
66 53 45 41 42 42 39 44 44 43 43 42 41 42 42 46 49 50 50 48 46 45 48 52 57 58 60 59 52 51 57 54 57 65 69 80 88 116 137 158 162 153 153 138 110 88 78 89 80
99 67 52 44 38 38 37 41 44 43 42 40 39 42 42 44 46 47 46 45 42 40 42 47 52 56 55 55 51 47 43 41 47 61 66 66 80 101 135 153 164 165 168 162 137 95 112 110 102
106 86 63 46 35 29 32 37 41 41 42 39 40 42 42 42 43 45 44 41 39 38 38 42 45 49 51 53 50 45 40 38 37 44 58 58 74 91 120 144 156 168 175 179 196 199 193 197 312
126 95 77 32 25 15 20 30 36 39 40 39 40 42 41 40 40 41 40 39 38 37 36 38 40 43 45 46 43 37 37 37 36 41 51 55 74 91 117 142 154 169 177 192 220 229 251 270 286
145 133 128 354 4 356 9 22 30 38 40 40 38 38 39 38 39 39 38 37 36 35 35 34 35 36 37 35 33 32 33 33 33 34 40 42 71 95 111 138 143 161 189 216 238 249 258 266 273
162 162 196 268 328 332 339 2 20 28 35 37 36 33 33 34 34 36 35 35 34 33 33 34 33 31 30 29 28 28 29 28 27 24 27 34 57 95 93 204 238 237 243 253 264 263 262 268 274
190 192 201 253 305 318 328 340 2 17 30 33 33 30 28 29 29 30 31 30 30 29 30 31 31 31 27 23 22 22 24 24 21 21 18 11 356 308 261 259 274 268 263 259 263 272 271 270 275
203 202 213 242 273 288 312 328 351 21 24 26 29 25 22 25 27 27 28 26 25 24 26 26 25 24 23 22 16 13 13 10 7 5 4 360 348 319 283 270 271 282 281 274 274 273 275 273 271
208 207 216 230 259 282 291 303 323 354 8 16 20 20 19 20 22 24 26 23 22 22 22 22 21 19 19 19 16 10 5 360 355 345 335 323 318 304 294 290 283 288 292 288 283 282 281 279 276
213 211 215 224 250 271 279 291 310 326 351 358 5 14 17 14 14 17 20 19 17 16 17 21 20 19 17 19 19 12 4 357 347 338 334 318 307 299 291 293 294 297 296 292 290 283 284 285 286
212 213 217 223 236 251 271 277 293 325 340 352 0 4 3 3 1 5 10 12 12 11 13 18 19 17 15 16 18 17 11 3 352 336 331 324 311 304 297 290 296 300 299 295 291 288 287 288 289
213 217 216 223 234 245 258 261 274 297 311 333 351 356 354 350 354 358 1 4 7 9 10 14 15 14 13 14 15 13 10 2 352 346 337 330 321 312 302 292 293 298 301 299 294 293 290 290 292
217 223 226 231 238 244 255 260 267 282 288 313 332 342 344 339 343 348 351 356 0 5 6 8 10 9 10 13 11 9 4 2 359 349 336 329 322 320 312 303 299 300 303 302 298 296 290 289 291
214 223 229 235 239 243 250 256 263 268 291 302 313 323 327 328 326 333 341 347 353 358 0 3 4 3 7 10 10 9 4 1 359 351 336 324 317 313 312 309 304 303 303 301 300 297 293 294 298
217 221 224 229 237 243 247 253 268 278 287 302 303 310 314 320 325 326 333 339 348 351 354 357 0 2 1 2 6 6 5 2 355 347 337 326 315 307 304 306 306 303 302 301 300 297 296 296 298
216 220 227 231 237 243 245 253 262 269 274 284 296 304 316 318 325 326 332 333 339 343 343 345 347 351 353 356 359 1 2 3 359 349 337 328 319 313 311 312 311 307 306 305 303 300 298 299 300
220 222 227 231 236 241 245 247 253 262 273 280 284 296 310 311 318 321 320 322 327 333 335 336 338 341 345 350 353 355 356 355 353 350 346 339 330 327 322 319 313 306 304 305 305 307 305 304 303
Height
5916 5914 5914 5914 5912 5910 5908 5907 5906 5905 5904 5902 5901 5901 5900 5900 5899 5900 5897 5895 5895 5894 5894 5893 5893 5892 5892 5892 5891 5891 5890 5890 5889 5888 5888 5887 5887 5886 5885 5885 5885 5884 5884 5885 5885 5885 5885 5886 5886
5918 5917 5917 5915 5912 5911 5910 5909 5908 5908 5906 5904 5903 5903 5902 5901 5899 5899 5897 5896 5895 5895 5895 5894 5894 5894 5893 5893 5893 5892 5892 5891 5891 5890 5889 5889 5888 5888 5887 5887 5886 5886 5886 5886 5886 5887 5887 5887 5887
5920 5919 5918 5916 5914 5913 5912 5911 5910 5909 5907 5906 5905 5905 5904 5902 5900 5899 5898 5897 5897 5896 5896 5896 5895 5895 5895 5895 5894 5894 5894 5893 5892 5892 5891 5890 5890 5890 5889 5889 5888 5888 5888 5888 5888 5889 5889 5889 5889
5922 5921 5919 5918 5916 5915 5914 5913 5911 5910 5909 5908 5907 5906 5905 5903 5902 5901 5900 5898 5898 5898 5897 5897 5897 5896 5896 5896 5896 5895 5895 5895 5894 5893 5893 5892 5892 5891 5891 5890 5890 5890 5890 5890 5890 5890 5890 5890 5891
5924 5923 5921 5920 5918 5917 5916 5915 5914 5912 5911 5909 5908 5907 5906 5905 5903 5902 5901 5900 5900 5899 5899 5898 5898 5898 5898 5897 5897 5897 5896 5896 5895 5895 5894 5894 5894 5893 5893 5892 5892 5892 5892 5892 5892 5892 5892 5892 5892
5926 5925 5924 5922 5921 5920 5919 5917 5916 5914 5912 5911 5910 5909 5908 5906 5904 5903 5902 5902 5901 5901 5900 5900 5899 5899 5899 5898 5898 5898 5897 5897 5897 5896 5896 5896 5895 5895 5895 5894 5894 5894 5894 5894 5894 5894 5894 5894 5894
5929 5927 5926 5925 5924 5922 5922 5920 5918 5916 5914 5913 5911 5910 5909 5908 5906 5904 5904 5903 5903 5902 5902 5901 5900 5900 5900 5899 5899 5899 5899 5899 5898 5898 5898 5897 5897 5897 5896 5896 5896 5896 5896 5896 5896 5895 5895 5896 5896
5930 5930 5929 5928 5927 5925 5924 5923 5921 5918 5916 5915 5913 5912 5910 5910 5908 5907 5906 5905 5904 5904 5903 5902 5902 5901 5901 5901 5900 5900 5900 5900 5899 5899 5899 5899 5898 5898 5898 5897 5897 5897 5897 5897 5897 5897 5897 5897 5897
5932 5933 5931 5931 5930 5928 5926 5924 5923 5920 5919 5917 5915 5914 5912 5911 5910 5908 5907 5906 5906 5905 5904 5904 5903 5902 5902 5902 5902 5901 5901 5901 5900 5900 5900 5900 5900 5899 5899 5899 5899 5898 5898 5899 5899 5898 5899 5899 5898
5934 5934 5934 5933 5932 5931 5929 5927 5925 5923 5921 5919 5917 5916 5914 5913 5911 5910 5909 5908 5907 5906 5905 5905 5904 5903 5903 5902 5902 5902 5902 5902 5901 5901 5900 5900 5900 5900 5900 5900 5900 5900 5900 5900 5900 5900 5900 5900 5900
5936 5936 5935 5935 5934 5933 5931 5929 5927 5925 5924 5922 5920 5919 5916 5914 5913 5912 5911 5910 5909 5908 5907 5906 5905 5904 5904 5903 5903 5903 5903 5902 5902 5901 5901 5901 5901 5901 5901 5901 5901 5901 5901 5901 5901 5901 5901 5901 5901
5939 5938 5937 5936 5936 5935 5934 5932 5930 5928 5927 5925 5923 5921 5919 5917 5915 5914 5912 5912 5911 5910 5909 5908 5907 5906 5905 5904 5904 5903 5903 5903 5902 5902 5901 5901 5901 5901 5901 5901 5901 5902 5902 5902 5902 5902 5902 5902 5901
5940 5939 5938 5938 5938 5937 5936 5935 5933 5931 5929 5927 5925 5923 5921 5919 5917 5916 5914 5913 5912 5911 5910 5909 5908 5907 5906 5905 5905 5904 5904 5903 5902 5902 5901 5901 5901 5901 5901 5902 5902 5902 5902 5902 5902 5902 5903 5902 5902
5941 5940 5940 5939 5939 5938 5938 5938 5936 5934 5932 5930 5928 5925 5923 5921 5919 5918 5916 5915 5913 5912 5910 5909 5908 5907 5907 5906 5905 5905 5904 5903 5902 5902 5901 5901 5901 5901 5901 5901 5902 5902 5903 5903 5903 5903 5903 5903 5902
5942 5942 5941 5941 5941 5941 5941 5940 5938 5936 5934 5932 5930 5928 5925 5923 5922 5920 5918 5916 5915 5913 5911 5910 5909 5908 5907 5907 5906 5905 5904 5903 5903 5902 5902 5901 5901 5901 5901 5901 5902 5902 5903 5903 5903 5903 5903 5903 5902
5942 5943 5942 5942 5942 5942 5943 5942 5940 5938 5936 5934 5932 5930 5928 5926 5924 5922 5920 5918 5917 5915 5913 5911 5910 5909 5908 5907 5907 5906 5905 5904 5903 5902 5902 5901 5901 5901 5900 5901 5901 5902 5902 5902 5902 5903 5903 5902 5902
5943 5943 5943 5943 5943 5943 5944 5942 5941 5940 5938 5936 5934 5932 5930 5928 5926 5924 5922 5920 5918 5916 5915 5913 5911 5910 5909 5908 5907 5906 5905 5904 5903 5903 5902 5902 5901 5901 5901 5901 5901 5901 5902 5902 5902 5902 5902 5902 5901
5942 5942 5943 5943 5943 5944 5944 5944 5942 5940 5939 5937 5935 5934 5932 5930 5928 5926 5924 5922 5920 5918 5916 5914 5913 5911 5910 5909 5908 5907 5905 5904 5904 5903 5902 5902 5901 5901 5901 5901 5901 5901 5901 5901 5901 5901 5901 5901 5900
5941 5942 5942 5943 5943 5944 5944 5943 5943 5941 5939 5938 5937 5935 5934 5932 5930 5928 5925 5923 5921 5919 5917 5916 5914 5912 5911 5909 5908 5907 5906 5905 5904 5903 5903 5902 5901 5901 5901 5901 5900 5900 5900 5900 5900 5900 5900 5899 5899
5941 5941 5942 5943 5943 5943 5943 5943 5942 5941 5940 5939 5938 5937 5935 5933 5932 5929 5927 5924 5923 5920 5918 5917 5915 5913 5912 5910 5909 5907 5906 5905 5904 5903 5902 5902 5901 5901 5901 5900 5900 5900 5900 5900 5899 5899 5899 5898 5898
5939 5941 5941 5942 5942 5942 5943 5943 5942 5942 5941 5940 5939 5938 5936 5934 5933 5931 5928 5926 5924 5921 5919 5918 5916 5914 5912 5910 5909 5907 5906 5905 5904 5903 5902 5902 5901 5900 5900 5900 5900 5899 5899 5899 5898 5898 5897 5896 5896
5938 5939 5940 5941 5941 5941 5942 5942 5942 5941 5940 5939 5939 5938 5937 5935 5933 5931 5929 5927 5925 5923 5921 5918 5916 5914 5912 5910 5909 5907 5906 5905 5904 5903 5902 5901 5900 5900 5900 5899 5899 5898 5898 5897 5897 5896 5895 5894 5894
5936 5938 5939 5939 5940 5940 5941 5941 5941 5940 5939 5939 5939 5938 5937 5936 5934 5932 5930 5928 5926 5924 5921 5919 5917 5915 5913 5911 5909 5907 5906 5904 5903 5902 5901 5900 5900 5899 5898 5898 5897 5897 5896 5896 5895 5894 5893 5892 5892
5934 5936 5937 5937 5938 5939 5940 5939 5939 5938 5938 5938 5938 5937 5936 5936 5934 5932 5930 5928 5926 5924 5922 5919 5917 5915 5913 5911 5909 5907 5905 5904 5903 5901 5900 5899 5899 5898 5897 5896 5896 5895 5894 5894 5893 5892 5891 5890 5889
5931 5933 5934 5935 5936 5937 5937 5936 5937 5937 5937 5937 5937 5936 5936 5935 5933 5932 5930 5928 5926 5924 5922 5920 5917 5915 5913 5911 5909 5907 5905 5903 5901 5900 5899 5898 5897 5896 5895 5894 5894 5893 5892 5892 5891 5889 5888 5887 5886
5927 5929 5931 5932 5933 5934 5934 5934 5935 5935 5934 5935 5935 5935 5935 5934 5933 5932 5930 5928 5926 5924 5922 5920 5917 5915 5913 5911 5909 5907 5905 5902 5900 5899 5898 5897 5896 5894 5893 5893 5892 5891 5890 5889 5888 5887 5886 5885 5883
5923 5925 5928 5929 5930 5931 5932 5932 5932 5932 5932 5932 5933 5933 5933 5933 5932 5931 5929 5927 5925 5923 5922 5919 5917 5915 5913 5911 5909 5906 5904 5901 5899 5897 5896 5895 5894 5893 5892 5891 5890 5888 5887 5886 5885 5884 5883 5882 5881
5919 5921 5924 5925 5926 5927 5929 5929 5930 5930 5930 5930 5931 5931 5931 5931 5930 5929 5927 5926 5925 5923 5922 5920 5918 5915 5914 5911 5909 5906 5904 5901 5899 5896 5895 5893 5892 5890 5889 5888 5887 5886 5885 5884 5883 5881 5880 5879 5878
5914 5917 5919 5921 5923 5924 5925 5928 5927 5927 5927 5928 5929 5929 5929 5928 5928 5927 5926 5925 5924 5923 5921 5920 5918 5915 5913 5911 5908 5905 5903 5901 5898 5896 5894 5892 5890 5888 5887 5886 5885 5884 5883 5881 5880 5879 5877 5876 5875
5909 5912 5914 5917 5919 5920 5921 5925 5924 5924 5925 5924 5925 5927 5927 5927 5927 5926 5925 5924 5923 5922 5920 5919 5917 5915 5912 5909 5907 5905 5902 5900 5897 5895 5893 5891 5889 5887 5885 5884 5883 5882 5880 5879 5878 5876 5875 5873 5871